TimeHST,TemperatureF,Dew PointF,Humidity,Sea Level PressureIn,VisibilityMPH,Wind Direction,Wind SpeedMPH,Gust SpeedMPH,PrecipitationIn,Events,Conditions,WindDirDegrees,DateUTC
12:56 AM,41.0,32.0,70,29.80,10.0,SSW,31.1,-,N/A,,Overcast,200,2012-11-20 10:56:00
1:56 AM,41.0,33.1,73,29.83,10.0,SSW,24.2,29.9,N/A,,Overcast,200,2012-11-20 11:56:00
2:56 AM,41.0,33.1,73,29.84,10.0,SSW,25.3,31.1,N/A,,Overcast,200,2012-11-20 12:56:00
3:56 AM,41.0,32.0,70,29.87,10.0,SSW,27.6,-,N/A,,Overcast,200,2012-11-20 13:56:00
4:56 AM,41.0,33.1,73,29.88,10.0,SSW,20.7,32.2,N/A,,Overcast,210,2012-11-20 14:56:00
5:56 AM,41.0,32.0,70,29.91,10.0,SW,25.3,31.1,N/A,,Overcast,220,2012-11-20 15:56:00
6:56 AM,41.0,33.1,73,29.94,10.0,SW,31.1,34.5,N/A,,Overcast,230,2012-11-20 16:56:00
7:56 AM,39.9,33.1,77,29.97,10.0,SW,17.3,-,N/A,,Overcast,220,2012-11-20 17:56:00
8:56 AM,39.9,34.0,79,29.99,10.0,SSW,18.4,24.2,N/A,,Scattered Clouds,210,2012-11-20 18:56:00
9:56 AM,41.0,34.0,76,30.04,10.0,SSW,12.7,-,N/A,,Scattered Clouds,210,2012-11-20 19:56:00
10:56 AM,42.1,33.1,70,30.06,10.0,SSW,16.1,-,N/A,,Overcast,200,2012-11-20 20:56:00
11:56 AM,42.1,34.0,73,30.07,10.0,SSW,15.0,-,N/A,,Overcast,200,2012-11-20 21:56:00
12:56 PM,41.0,35.1,79,30.10,10.0,SSW,8.1,-,N/A,,Overcast,200,2012-11-20 22:56:00
1:56 PM,42.1,32.0,67,30.09,10.0,South,13.8,-,N/A,,Overcast,190,2012-11-20 23:56:00
2:56 PM,42.1,28.9,60,30.10,10.0,SSW,10.4,-,N/A,,Overcast,200,2012-11-21 00:56:00
3:56 PM,42.1,32.0,67,30.11,10.0,South,10.4,-,N/A,,Overcast,180,2012-11-21 01:56:00
4:56 PM,42.1,28.9,60,30.12,10.0,South,16.1,-,N/A,,Overcast,180,2012-11-21 02:56:00
5:56 PM,42.1,30.0,62,30.14,10.0,SSE,13.8,-,N/A,,Overcast,150,2012-11-21 03:56:00
6:56 PM,42.1,28.9,60,30.15,10.0,SSE,10.4,-,N/A,,Overcast,160,2012-11-21 04:56:00
7:56 PM,41.0,33.1,73,30.16,10.0,SE,17.3,-,N/A,,Overcast,130,2012-11-21 05:56:00
8:56 PM,41.0,34.0,76,30.17,10.0,ESE,15.0,-,N/A,,Clear,120,2012-11-21 06:56:00
9:56 PM,41.0,36.0,82,30.17,10.0,SE,18.4,-,N/A,,Clear,130,2012-11-21 07:56:00
10:56 PM,41.0,37.0,86,30.17,10.0,SE,19.6,-,N/A,,Clear,130,2012-11-21 08:56:00
11:56 PM,41.0,34.0,76,30.16,10.0,ESE,21.9,-,N/A,,Clear,120,2012-11-21 09:56:00